Location: Unspecified
(40.9447°N, 78.9903°W)
Time: 02:43:10
(UTC-04:00)

ISS - Visible Passes

Search period start: 16 October 2019 00:00
Search period end: 26 October 2019 00:00
Orbit: 411 x 421 km, 51.6° (Epoch: 16 October)

Date Brightness Start Highest point End Pass type
(mag) Time Alt. Az. Time Alt. Az. Time Alt. Az.
22 Oct -1.1 07:00:33 10° S 07:03:11 22° SE 07:05:50 10° E visible
23 Oct -0.6 06:13:18 10° SSE 06:14:49 13° SE 06:16:20 10° ESE visible
24 Oct -3.3 06:59:15 10° SW 07:02:34 63° SE 07:05:55 10° ENE visible
25 Oct -2.2 06:11:27 13° SSW 06:14:05 34° SE 06:17:11 10° ENE visible
